SL-12 R/B(2) (15772 NORAD) Tracking and Keplerian Element Data

This shows tracking and keplerian element data for the satellite.

Feedback or suggestion? Click here.




ElementValue
Catalog15772
NameSL-12 R/B(2)
Epoch Orbit89924
Epoch Day15.82758455
Epoch Year2022
RAAN44.0848
Inclination71.1083
Eccentricity0.0037085
Argument of Perigee317.8228
Mean Anonmoly214.8508
Mean Motion14.21312999
Decay Rate-5.5E-07
L11 15772U 85042D 22015.82758455 -.00000055 00000+0 -34988-5 0 9993
L22 15772 71.1083 44.0848 0037085 317.8228 214.8508 14.21312999899247

Live tracking and technical data element details for SL-12 R/B(2) (NORAD 15772). SL-12 R/B(2) can be tracked NOW for your location showing map with azimuth and elevation plus other details from your city location.

Track the satellite on the map from your city or location and see movement details for azimuth, elevation, latitude, longitude, range, height, and movement on the map or in text.







IsCatalogInMostPopularTable: catalog: 15772, numindb: 277
Update: records affected: 1



GetName: 15772 SL-12 R/B(2)

Hit Count: updated at: Mon, 17 Jan 2022 00:49:50 GMT